Hourly Data Report for July 03, 2021

ST. JOHN'S INTL A
NEWFOUNDLAND
Current Station Operator: NAVCAN

47°37'07.000" N
52°45'09.000" W
140.50 m
8403505
71801
YYT

Download Data

Hourly Data (July 2021)
Hourly Data Report for July 3, 2021
TIME
LST
Temp Definition
°C
Dew Point Definition
°C
Rel Hum Definition
%
Precip. Amount Definition
mm

Wind Dir Definition
10's deg

Wind Spd Definition
km/h
Visibility Definition
km
Stn Press Definition
kPa
Hmdx Definition


Wind Chill Definition


Weather Definition


00:30 7.2 7.0 98   10 10 24.1 99.94     Rain Showers
01:30 7.1 6.8 98   11 11 24.1 99.92     Rain Showers
02:30 7.1 6.9 98   10 8 24.1 99.93     Rain Showers
03:30 7.1 6.8 98   9 9 24.1 99.89     LegendNANA
04:30 7.1 6.9 98   9 7 24.1 99.93     LegendNANA
05:30 7.2 6.9 98   7 11 24.1 99.99     Cloudy
06:30 7.3 7.0 98   9 12 24.1 100.00     LegendNANA
07:30 7.8 7.2 96   9 12 24.1 100.03     LegendNANA
08:30 7.9 6.8 92   10 11 24.1 100.06     Cloudy
09:30 8.8 6.6 86   7 13 24.1 100.06     LegendNANA
10:30 10.0 7.2 83   5 10 24.1 100.10     LegendNANA
11:30 10.2 6.6 78   6 9 24.1 100.13     Mostly Cloudy
12:30 11.3 6.2 70   13 9 24.1 100.12     LegendNANA
13:30 11.9 5.8 66   12 9 24.1 100.13     LegendNANA
14:30 12.8 6.8 67   9 9 24.1 100.06     Mostly Cloudy
15:30 12.0 6.0 67   11 9 24.1 100.11     LegendNANA
16:30 11.8 6.4 69   11 7 24.1 100.10     LegendNANA
17:30 11.6 7.0 73   16 7 24.1 100.09     Mostly Cloudy
18:30 10.3 6.3 77   17 6 24.1 100.09     LegendNANA
19:30 9.5 6.7 82   17 8 24.1 100.12     LegendNANA
20:30 9.5 6.3 81   20 10 24.1 100.15     Mostly Cloudy
21:30 10.4 6.0 74   25 5 24.1 100.21     LegendNANA
22:30 9.6 2.6 62   23 9 24.1 100.18     LegendNANA
23:30 8.8 4.3 73   5 6 24.1 100.20     Mostly Cloudy

Notes on Data Quality.

Legend

  • E = Estimated
  • M = Missing
  • NA = Not Available*
  • [empty] = Indicates an unobserved value
Date modified: